Powrót do katalogu

STARLINK-5262

AktywnyŁącznośćVLEO
NORAD 54207·PAYLOAD·🇺🇸 United States

Wystrzelony Oct 28, 2022 z Vandenberg Space Force Base

Loading…

Następne Przeloty (najbliższe 24 godziny)

TLE

ŚwieżeSource: CelesTrak SupGP

Epoka: Sep 15, 2026, 01:41 UTC

1 54207C 22141BC  26258.07062500 -.00032057  00000+0 -97275-3 0  2580
2 54207  53.1585 215.1048 0001404  90.0604 327.1433 15.33564032    12

Śledź STARLINK-5262 w czasie rzeczywistym z AllMySat

Download on the App Store